Regional Weather Roundup
Issued by NWS Jackson, KY

Home | Current Version | Previous Version | Text Only | Print | Product List | Glossary On
Versions: 1 2 3 4 5 6 7 8 9 10 11 12 13 14 15 16 17 18 19 20 21 22 23 24 25 26 27 28 29 30 31 32 33 34 35 36 37 38 39 40 41 42 43 44 45 46 47 48 49 50
000
ASUS43 KJKL 241310
RWRJKL

EAST KENTUCKY HOURLY WEATHER ROUNDUP
NATIONAL WEATHER SERVICE JACKSON KY
800 AM EST FRI FEB 24 2017

NOTE: "FAIR" INDICATES FEW OR NO CLOUDS BELOW 12,000 FEET WITH
NO SIGNIFICANT WEATHER AND/OR OBSTRUCTIONS TO VISIBILITY.

* THESE REPORTS ARE NOT UNDER NWS QUALITY CONTROL AND MAY NOT
  REPORT WEATHER SUCH AS PRECIPITATION AND FOG.

KYZ079-080-083-085-087-088-110-112-115-119-120-241400
...EASTERN KENTUCKY...

CITY           SKY/WX    TMP DP  RH WIND       PRES   REMARKS
JACKSON        CLEAR     57  49  74 VRB3      29.81S
LONDON         CLEAR     60  47  61 S9        29.80F
SOMERSET*      CLEAR     59  48  67 S9        29.81R
MONTICELLO*    CLEAR     63  51  65 SE7       29.81R
WILLIAMSBURG*  SUNNY     59  50  72 SE7       29.82S
MIDDLESBORO*   CLEAR     47  47 100 CALM      29.86S
HARLAN APT*    MOSUNNY   54  46  76 CALM      29.87R
PIKE CO APT*     N/A     59  49  68 S5        29.84S
BIG SANDY APT* SUNNY     60  49  67 S10       29.83S
MOREHEAD APT*  SUNNY     57  50  77 S6        29.80S
ASHLAND*       CLEAR     52  50  93 E5        29.78S
$$

KYZ035-036-041-042-044-050-067-078-099-241400
...CENTRAL KENTUCKY...

CITY           SKY/WX    TMP DP  RH WIND       PRES   REMARKS
MT STERLING*   CLEAR     57  50  77 SW10      29.80R
FLEMING/MASON* CLEAR     58  51  78 S10       29.78R
DANVILLE*      PTCLDY    57  50  77 S8        29.77S
LEXINGTON      PTCLDY    60  50  69 S13       29.75S
FRANKFORT      CLOUDY    59  50  72 S9        29.72S
LOUISVILLE     PTCLDY    63  54  72 S16       29.68F
LEBANON*         N/A     63  52  67 S14       29.74S
GLASGOW*       CLEAR     60  53  79 S6        29.74R
BOWLING GREEN  PTCLDY    63  56  78 S10       29.73R
$$

KYZ091>093-OHZ055-061-077-WVZ005-015-034-035-042-241400
...SOUTHERN OHIO/WEST VIRGINIA...

CITY           SKY/WX    TMP DP  RH WIND       PRES   REMARKS
COVINGTON      PTCLDY    60  53  77 S15       29.70S
COLUMBUS       PTCLDY    63  53  70 S10       29.73R
DAYTON         MOCLDY    60  53  77 S16       29.68S
WILMINGTON     MOCLDY    59  52  77 S14       29.72R
HUNTINGTON     CLEAR     53  49  86 SE3       29.80S
CHARLESTON     PTCLDY    49  48  97 CALM      29.83S
PINEVILLE*     CLEAR     42  40  91 MISG      29.94S
BECKLEY        SUNNY     55  46  71 SE7       29.90R
BLUEFIELD      SUNNY     55  44  66 CALM      29.92S
LOGAN CO APT*    N/A     59  48  67 S6        29.85S
$$

VAZ002-007-008-TNZ017-027-036-066-071-241400
...SOUTHWEST VIRGINIA/EAST TENNESSEE...

CITY           SKY/WX    TMP DP  RH WIND       PRES   REMARKS
WISE*          PTCLDY    55  45  67 S3        29.91S
JONESVILLE*      N/A     46  46 100 CALM      29.90S
ABINGDON*      CLEAR     50  47  91 CALM      29.91S
BRISTOL        PTCLDY    47  45  93 CALM      29.90R
MORRISTOWN*    SUNNY     50  48  93 CALM      29.87R
SEVIERVILLE*   SUNNY     45  43  93 CALM      29.87R
KNOXVILLE      PTCLDY    51  48  89 NE3       29.86R
LAFOLLETTE*    SUNNY     54  50  87 CALM      29.88S
OAK RIDGE      PTCLDY    51  49  92 CALM      29.88R
CROSSVILLE     CLEAR     59  50  72 S8G17     29.85S
NASHVILLE      PTCLDY    63  56  78 S10       29.76R
$$

...KEY TO REMARKS...
VSB - VISIBILITY IN MILES
WCI - WIND CHILL INDEX
HX  - HEAT INDEX

$$



USA.gov is the U.S. government's official web portal to all federal, state and local government web resources and services.